OK,128,19,850,128,2014-10-01T01:40:00,0,28072620,188251
OK,128,19,850,128,2014-10-01T01:45:00,0,28073067,188251
OK,128,19,850,128,2014-10-01T01:50:00,0,28073516,188251
OK,128,19,850,128,2014-10-01T01:55:00,0,28073833,188251
OK,128,19,850,128,2014-10-01T02:00:00,0,28074282,188251
OK,128,19,850,128,2014-10-01T02:05:00,0,28074724,188251
OK,128,19,850,128,2014-10-01T02:10:00,0,28075171,188251
OK,128,19,850,128,2014-10-01T02:20:00,0,28075620,188251
OK,128,19,850,128,2014-10-01T02:25:00,0,28076452,188251
OK,128,19,850,128,2014-10-01T02:30:00,0,28076901,188251
OK,128,19,850,128,2014-10-01T02:35:00,0,28077350,188251
OK,128,19,850,128,2014-10-01T02:40:00,0,28077754,188251
OK,128,19,850,128,2014-10-01T02:45:00,0,28078202,188251
OK,128,19,850,128,2014-10-01T02:50:00,0,28078647,188251
OK,128,19,850,128,2014-10-01T02:55:00,0,28079096,188251
OK,128,19,850,128,2014-10-01T03:00:00,0,28079538,188251
OK,128,19,850,128,2014-10-01T03:05:00,0,28079987,188251
OK,128,19,850,128,2014-10-01T03:10:00,0,28080323,188251
OK,128,19,850,128,2014-10-01T03:15:00,0,28080770,188251
OK,128,19,850,128,2014-10-01T03:20:00,0,28081219,188251
OK,69,35,850,69,2014-10-01T03:25:00,2,28081666,188251
OK,69,35,850,69,2014-10-01T03:30:00,2,28082115,188251
OK,69,35,850,69,2014-10-01T03:35:00,0,28082551,188251
OK,69,35,850,69,2014-10-01T03:40:00,0,28082980,188251
OK,69,35,850,69,2014-10-01T03:45:00,0,28083429,188251
OK,69,35,850,69,2014-10-01T03:50:00,0,28083878,188251
OK,69,35,850,69,2014-10-01T03:55:00,0,28084321,188251
OK,69,35,850,69,2014-10-01T04:00:00,0,28084748,188251
OK,69,35,850,69,2014-10-01T04:05:00,0,28085193,188251
OK,65,37,850,65,2014-10-01T04:10:00,1,28085639,188251
OK,92,26,850,92,2014-10-01T04:15:00,1,28086087,188251
OK,92,26,850,92,2014-10-01T04:20:00,0,28086530,188251
OK,112,21,850,112,2014-10-01T04:25:00,4,28086978,188251
OK,115,21,850,115,2014-10-01T04:30:00,4,28087423,188251
OK,139,17,850,139,2014-10-01T04:35:00,1,28087872,188251
OK,97,25,850,97,2014-10-01T04:40:00,1,28088299,188251
OK,64,38,850,64,2014-10-01T04:45:00,3,28088745,188251
OK,64,38,850,64,2014-10-01T04:50:00,3,28089176,188251
OK,51,47,850,51,2014-10-01T04:55:00,1,28089624,188251
OK,92,26,850,92,2014-10-01T05:05:00,6,28090073,188251
OK,73,33,850,73,2014-10-01T05:10:00,4,28090866,188251
OK,86,28,850,86,2014-10-01T05:15:00,2,28091315,188251
OK,133,18,850,133,2014-10-01T05:20:00,3,28091734,188251
OK,216,11,850,216,2014-10-01T05:25:00,5,28092181,188251
OK,225,10,850,225,2014-10-01T05:30:00,3,28092626,188251
OK,255,9,850,255,2014-10-01T05:35:00,4,28093066,188251
OK,296,8,850,296,2014-10-01T05:40:00,4,28093497,188251
OK,285,8,850,285,2014-10-01T05:45:00,1,28093946,188251
OK,454,5,850,454,2014-10-01T05:50:00,1,28094360,188251
OK,520,4,850,520,2014-10-01T05:55:00,1,28094802,188251
OK,641,3,850,641,2014-10-01T06:00:00,3,28095249,188251
OK,637,3,850,637,2014-10-01T06:05:00,4,28095698,188251
OK,1001,2,850,1001,2014-10-01T06:10:00,3,28096112,188251
OK,522,4,850,522,2014-10-01T06:15:00,6,28096560,188251
OK,437,5,850,437,2014-10-01T06:20:00,6,28096996,188251
OK,402,6,850,402,2014-10-01T06:25:00,6,28097443,188251
OK,262,9,850,262,2014-10-01T06:30:00,7,28097892,188251
OK,256,9,850,256,2014-10-01T06:35:00,5,28098331,188251
OK,256,9,850,256,2014-10-01T06:40:00,5,28098774,188251
OK,257,9,850,257,2014-10-01T06:45:00,4,28099221,188251
OK,417,5,850,417,2014-10-01T06:50:00,4,28099566,188251
OK,440,5,850,440,2014-10-01T06:55:00,2,28100013,188251
OK,459,5,850,459,2014-10-01T07:00:00,1,28100322,188251
OK,320,7,850,320,2014-10-01T07:05:00,3,28100769,188251
OK,248,9,850,248,2014-10-01T07:10:00,4,28101141,188251
OK,221,11,850,221,2014-10-01T07:15:00,3,28101589,188251
OK,189,12,850,189,2014-10-01T07:20:00,5,28102026,188251
OK,177,13,850,177,2014-10-01T07:25:00,5,28102474,188251
OK,115,21,850,115,2014-10-01T07:30:00,9,28102906,188251
OK,116,20,850,116,2014-10-01T07:35:00,6,28103348,188251
OK,74,32,850,74,2014-10-01T07:40:00,1,28103794,188251
OK,123,19,850,123,2014-10-01T07:45:00,4,28104238,188251
OK,123,19,850,123,2014-10-01T07:50:00,2,28104680,188251
OK,97,25,850,97,2014-10-01T07:55:00,6,28105124,188251
OK,104,23,850,104,2014-10-01T08:00:00,7,28105565,188251
OK,59,41,850,59,2014-10-01T08:05:00,3,28106013,188251
OK,57,42,850,57,2014-10-01T08:10:00,2,28106450,188251
OK,98,24,850,98,2014-10-01T08:15:00,2,28106858,188251
OK,98,24,850,98,2014-10-01T08:20:00,4,28107288,188251
OK,79,30,850,79,2014-10-01T08:25:00,4,28107737,188251
OK,79,30,850,79,2014-10-01T08:30:00,2,28108176,188251
OK,98,24,850,98,2014-10-01T08:35:00,6,28108625,188251
OK,98,24,850,98,2014-10-01T08:40:00,6,28109054,188251
OK,78,31,850,78,2014-10-01T08:45:00,1,28109502,188251
OK,74,32,850,74,2014-10-01T08:50:00,2,28109846,188251
OK,90,27,850,90,2014-10-01T08:55:00,4,28110294,188251
OK,98,24,850,98,2014-10-01T09:00:00,7,28110717,188251
OK,105,23,850,105,2014-10-01T09:05:00,4,28111166,188251
OK,141,17,850,141,2014-10-01T09:10:00,2,28111595,188251
OK,91,26,850,91,2014-10-01T09:15:00,3,28112044,188251
OK,91,26,850,91,2014-10-01T09:20:00,3,28112386,188251
OK,102,23,850,102,2014-10-01T09:25:00,1,28112834,188251
OK,102,23,850,102,2014-10-01T09:30:00,0,28113259,188251
OK,99,24,850,99,2014-10-01T09:35:00,1,28113707,188251
OK,110,22,850,110,2014-10-01T09:40:00,4,28114139,188251
OK,126,19,850,126,2014-10-01T09:45:00,1,28114588,188251
OK,126,19,850,126,2014-10-01T09:50:00,0,28114943,188251
OK,74,32,850,74,2014-10-01T09:55:00,1,28115391,188251
OK,101,24,850,101,2014-10-01T10:00:00,2,28115804,188251
OK,112,21,850,112,2014-10-01T10:05:00,2,28116252,188251
OK,95,25,850,95,2014-10-01T10:10:00,2,28116661,188251
OK,107,22,850,107,2014-10-01T10:15:00,3,28117109,188251
OK,113,21,850,113,2014-10-01T10:20:00,2,28117534,188251
OK,88,27,850,88,2014-10-01T10:25:00,3,28117983,188251
OK,100,24,850,100,2014-10-01T10:30:00,5,28118428,188251
OK,100,24,850,100,2014-10-01T10:35:00,5,28118875,188251
OK,96,25,850,96,2014-10-01T10:40:00,2,28119319,188251
OK,98,24,850,98,2014-10-01T10:45:00,1,28119767,188251
OK,105,23,850,105,2014-10-01T10:50:00,2,28120215,188251
OK,155,15,850,155,2014-10-01T10:55:00,2,28120664,188251
OK,199,12,850,199,2014-10-01T11:00:00,1,28121048,188251
OK,138,17,850,138,2014-10-01T11:05:00,1,28121496,188251
OK,94,25,850,94,2014-10-01T11:10:00,1,28121935,188251
OK,108,22,850,108,2014-10-01T11:15:00,2,28122383,188251
OK,108,22,850,108,2014-10-01T11:20:00,2,28122825,188251
OK,92,26,850,92,2014-10-01T11:25:00,1,28123273,188251
OK,101,24,850,101,2014-10-01T11:30:00,2,28123706,188251
OK,108,22,850,108,2014-10-01T11:35:00,2,28124154,188251
OK,106,22,850,106,2014-10-01T11:40:00,1,28124558,188251
OK,106,22,850,106,2014-10-01T11:45:00,0,28125005,188251
OK,106,22,850,106,2014-10-01T11:50:00,0,28125434,188251
OK,121,20,850,121,2014-10-01T11:55:00,2,28125883,188251
OK,115,21,850,115,2014-10-01T12:00:00,5,28126236,188251
OK,112,21,850,112,2014-10-01T12:05:00,5,28126684,188251
OK,68,35,850,68,2014-10-01T12:10:00,3,28127133,188251
OK,92,26,850,92,2014-10-01T12:15:00,3,28127582,188251
OK,95,25,850,95,2014-10-01T12:20:00,3,28128011,188251
OK,101,24,850,101,2014-10-01T12:25:00,1,28128459,188251
OK,101,24,850,101,2014-10-01T12:30:00,0,28128894,188251
OK,101,24,850,101,2014-10-01T12:35:00,0,28129343,188251
OK,358,6,850,358,2014-10-01T12:40:00,2,28129778,188251
OK,299,8,850,299,2014-10-01T12:45:00,2,28130226,188251
OK,317,7,850,317,2014-10-01T12:50:00,0,28130655,188251
OK,326,7,850,326,2014-10-01T12:55:00,1,28131103,188251
OK,326,7,850,326,2014-10-01T13:00:00,0,28131541,188251
OK,319,7,850,319,2014-10-01T13:05:00,1,28131989,188251
OK,320,7,850,320,2014-10-01T13:10:00,2,28132428,188251
OK,322,7,850,322,2014-10-01T13:15:00,3,28132874,188251
OK,290,8,850,290,2014-10-01T13:20:00,2,28133312,188251
OK,326,7,850,326,2014-10-01T13:25:00,0,28133761,188251
OK,326,7,850,326,2014-10-01T13:30:00,0,28134200,188251
OK,354,6,850,354,2014-10-01T13:35:00,1,28134649,188251
OK,354,6,850,354,2014-10-01T13:40:00,0,28135069,188251
OK,242,10,850,242,2014-10-01T13:45:00,1,28135517,188251
OK,180,13,850,180,2014-10-01T13:50:00,2,28135954,188251
OK,119,20,850,119,2014-10-01T13:55:00,3,28136403,188251
OK,139,17,850,139,2014-10-01T14:00:00,2,28136843,188251
OK,104,23,850,104,2014-10-01T14:05:00,0,28137292,188251
OK,208,11,850,208,2014-10-01T14:10:00,1,28137726,188251
OK,208,11,850,208,2014-10-01T14:15:00,1,28138175,188251
OK,302,8,850,302,2014-10-01T14:20:00,1,28138604,188251
OK,302,8,850,302,2014-10-01T14:25:00,3,28139052,188251
OK,302,8,850,302,2014-10-01T14:30:00,3,28139464,188251
OK,289,8,850,289,2014-10-01T14:35:00,2,28139912,188251
OK,306,7,850,306,2014-10-01T14:40:00,1,28140355,188251
OK,497,4,850,497,2014-10-01T14:45:00,2,28140803,188251
OK,499,4,850,499,2014-10-01T14:50:00,3,28141230,188251
OK,499,4,850,499,2014-10-01T14:55:00,1,28141678,188251
OK,499,4,850,499,2014-10-01T15:00:00,0,28142107,188251
OK,424,5,850,424,2014-10-01T15:05:00,2,28142555,188251
OK,424,5,850,424,2014-10-01T15:10:00,2,28142983,188251
OK,259,9,850,259,2014-10-01T15:15:00,0,28143431,188251
OK,525,4,850,525,2014-10-01T15:20:00,1,28143879,188251
OK,389,6,850,389,2014-10-01T15:25:00,6,28144328,188251
OK,389,6,850,389,2014-10-01T15:30:00,5,28144751,188251
OK,86,28,850,86,2014-10-01T15:35:00,1,28145163,188251
OK,105,23,850,105,2014-10-01T15:40:00,2,28145612,188251
OK,103,23,850,103,2014-10-01T15:45:00,2,28146061,188251
OK,104,23,850,104,2014-10-01T15:50:00,2,28146510,188251
OK,73,33,850,73,2014-10-01T15:55:00,4,28146921,188251
OK,73,33,850,73,2014-10-01T16:00:00,3,28147362,188251
OK,98,24,850,98,2014-10-01T16:05:00,1,28147811,188251
OK,98,24,850,98,2014-10-01T16:10:00,1,28148213,188251
OK,100,24,850,100,2014-10-01T16:15:00,2,28148661,188251
OK,103,23,850,103,2014-10-01T16:20:00,4,28149101,188251
OK,103,23,850,103,2014-10-01T16:25:00,2,28149549,188251
OK,62,39,850,62,2014-10-01T16:30:00,1,28149976,188251
OK,62,39,850,62,2014-10-01T16:35:00,0,28150424,188251
OK,62,39,850,62,2014-10-01T16:40:00,0,28150843,188251
OK,46,52,850,46,2014-10-01T16:45:00,1,28151291,188251
OK,46,52,850,46,2014-10-01T16:50:00,1,28151740,188251
OK,46,52,850,46,2014-10-01T17:00:00,0,28152189,188251
OK,85,28,850,85,2014-10-01T17:05:00,1,28152635,188251
OK,112,21,850,112,2014-10-01T17:10:00,2,28153082,188251
OK,93,26,850,93,2014-10-01T17:15:00,3,28153531,188251
OK,91,26,850,91,2014-10-01T17:20:00,2,28153943,188251
OK,69,35,850,69,2014-10-01T17:25:00,1,28154390,188251
OK,85,28,850,85,2014-10-01T17:30:00,2,28154832,188251
OK,102,23,850,102,2014-10-01T17:35:00,0,28155280,188251
OK,102,23,850,102,2014-10-01T17:40:00,0,28155700,188251
OK,102,23,850,102,2014-10-01T17:45:00,0,28156147,188251
OK,102,23,850,102,2014-10-01T17:50:00,0,28156596,188251
OK,102,23,850,102,2014-10-01T17:55:00,0,28157034,188251
OK,102,23,850,102,2014-10-01T18:00:00,0,28157465,188251
OK,102,23,850,102,2014-10-01T18:05:00,0,28157912,188251
OK,112,21,850,112,2014-10-01T18:10:00,3,28158356,188251
OK,117,20,850,117,2014-10-01T18:15:00,2,28158802,188251
OK,117,20,850,117,2014-10-01T18:20:00,0,28159248,188251
OK,77,31,850,77,2014-10-01T18:25:00,1,28159584,188251
OK,118,20,850,118,2014-10-01T18:30:00,2,28160032,188251
OK,159,15,850,159,2014-10-01T18:35:00,1,28160481,188251
OK,159,15,850,159,2014-10-01T18:40:00,0,28160920,188251
OK,159,15,850,159,2014-10-01T18:45:00,0,28161368,188251
OK,159,15,850,159,2014-10-01T18:50:00,0,28161785,188251
OK,159,15,850,159,2014-10-01T18:55:00,0,28162234,188251
OK,58,41,850,58,2014-10-01T19:00:00,1,28162634,188251
OK,58,41,850,58,2014-10-01T19:05:00,1,28163067,188251
OK,58,41,850,58,2014-10-01T19:10:00,0,28163515,188251
OK,108,22,850,108,2014-10-01T19:15:00,1,28163964,188251
OK,108,22,850,108,2014-10-01T19:20:00,1,28164396,188251
OK,108,22,850,108,2014-10-01T19:25:00,0,28164844,188251
OK,108,22,850,108,2014-10-01T19:30:00,0,28165270,188251
OK,108,22,850,108,2014-10-01T19:35:00,0,28165717,188251
OK,108,22,850,108,2014-10-01T19:40:00,0,28166158,188251
OK,108,22,850,108,2014-10-01T19:45:00,0,28166520,188251
OK,108,22,850,108,2014-10-01T19:50:00,0,28166969,188251
OK,108,22,850,108,2014-10-01T19:55:00,0,28167398,188251
OK,91,26,850,91,2014-10-01T20:00:00,1,28167832,188251
OK,91,26,850,91,2014-10-01T20:05:00,1,28168280,188251
OK,91,26,850,91,2014-10-01T20:10:00,0,28168725,188251
OK,91,26,850,91,2014-10-01T20:15:00,0,28169174,188251
OK,91,26,850,91,2014-10-01T20:20:00,0,28169622,188251
OK,91,26,850,91,2014-10-01T20:25:00,0,28170048,188251
OK,91,26,850,91,2014-10-01T20:30:00,0,28170493,188251
OK,91,26,850,91,2014-10-01T20:35:00,0,28170941,188251
OK,91,26,850,91,2014-10-01T20:40:00,0,28171378,188251
OK,91,26,850,91,2014-10-01T20:45:00,0,28171824,188251
OK,91,26,850,91,2014-10-01T20:50:00,0,28172272,188251
OK,91,26,850,91,2014-10-01T20:55:00,0,28172718,188251
OK,91,26,850,91,2014-10-01T21:00:00,0,28173164,188251
OK,91,26,850,91,2014-10-01T21:05:00,1,28173613,188251
OK,91,26,850,91,2014-10-01T21:10:00,0,28174054,188251
OK,106,22,850,106,2014-10-01T21:15:00,1,28174503,188251
OK,106,22,850,106,2014-10-01T21:20:00,1,28174929,188251
OK,106,22,850,106,2014-10-01T21:25:00,0,28175325,188251
OK,106,22,850,106,2014-10-01T21:30:00,0,28175774,188251
OK,106,22,850,106,2014-10-01T21:35:00,0,28176223,188251
OK,106,22,850,106,2014-10-01T21:40:00,0,28176672,188251
OK,106,22,850,106,2014-10-01T21:45:00,0,28177034,188251
OK,106,22,850,106,2014-10-01T21:50:00,0,28177468,188251
OK,106,22,850,106,2014-10-01T21:55:00,0,28177914,188251
OK,106,22,850,106,2014-10-01T22:00:00,0,28178363,188251
OK,79,30,850,79,2014-10-01T22:05:00,1,28178810,188251
OK,79,30,850,79,2014-10-01T22:10:00,1,28179245,188251
OK,79,30,850,79,2014-10-01T22:15:00,0,28179687,188251
OK,79,30,850,79,2014-10-01T22:20:00,0,28180134,188251
OK,79,30,850,79,2014-10-01T22:25:00,0,28180532,188251
OK,79,30,850,79,2014-10-01T22:30:00,0,28180981,188251
OK,79,30,850,79,2014-10-01T22:35:00,0,28181405,188251
OK,79,30,850,79,2014-10-01T22:40:00,0,28181853,188251
OK,79,30,850,79,2014-10-01T22:45:00,0,28182300,188251
OK,79,30,850,79,2014-10-01T22:50:00,0,28182749,188251
OK,79,30,850,79,2014-10-01T22:55:00,0,28183166,188251
OK,79,30,850,79,2014-10-01T23:00:00,0,28183599,188251
OK,79,30,850,79,2014-10-01T23:05:00,0,28184044,188251
OK,79,30,850,79,2014-10-01T23:10:00,0,28184493,188251
OK,79,30,850,79,2014-10-01T23:15:00,0,28184928,188251
OK,79,30,850,79,2014-10-01T23:20:00,0,28185376,188251
OK,79,30,850,79,2014-10-01T23:25:00,0,28185807,188251
OK,79,30,850,79,2014-10-01T23:30:00,0,28186199,188251
OK,79,30,850,79,2014-10-01T23:40:00,0,28187046,188251
OK,79,30,850,79,2014-10-01T23:45:00,0,28187488,188251
OK,79,30,850,79,2014-10-01T23:55:00,0,28188378,188251
OK,79,30,850,79,2014-10-02T00:00:00,0,28188814,188251
OK,79,30,850,79,2014-10-02T00:05:00,0,28189263,188251
OK,79,30,850,79,2014-10-02T00:10:00,0,28189686,188251
OK,79,30,850,79,2014-10-02T00:15:00,0,28190134,188251
OK,79,30,850,79,2014-10-02T00:20:00,0,28190488,188251
OK,79,30,850,79,2014-10-02T00:25:00,0,28190936,188251
OK,79,30,850,79,2014-10-02T00:30:00,0,28191385,188251
OK,79,30,850,79,2014-10-02T00:35:00,0,28191692,188251
OK,79,30,850,79,2014-10-02T00:40:00,0,28192140,188251
OK,79,30,850,79,2014-10-02T00:45:00,0,28192573,188251
OK,79,30,850,79,2014-10-02T00:50:00,0,28193017,188251
OK,79,30,850,79,2014-10-02T00:55:00,0,28193384,188251
OK,79,30,850,79,2014-10-02T01:05:00,0,28194282,188251
OK,79,30,850,79,2014-10-02T01:15:00,0,28194731,188251
OK,79,30,850,79,2014-10-02T01:20:00,0,28195416,188251
OK,79,30,850,79,2014-10-02T01:30:00,0,28195865,188251
OK,79,30,850,79,2014-10-02T01:35:00,0,28196598,188251
OK,79,30,850,79,2014-10-02T01:40:00,0,28197022,188251
OK,79,30,850,79,2014-10-02T01:45:00,0,28197470,188251
OK,79,30,850,79,2014-10-02T01:50:00,0,28197918,188251
OK,79,30,850,79,2014-10-02T01:55:00,0,28198366,188251
OK,79,30,850,79,2014-10-02T02:05:00,0,28198815,188251
OK,79,30,850,79,2014-10-02T02:10:00,0,28199629,188251
OK,79,30,850,79,2014-10-02T02:15:00,0,28200071,188251
OK,79,30,850,79,2014-10-02T02:20:00,0,28200514,188251
OK,79,30,850,79,2014-10-02T02:25:00,0,28200963,188251
OK,79,30,850,79,2014-10-02T02:30:00,0,28201394,188251
OK,79,30,850,79,2014-10-02T02:45:00,0,28202292,188251
OK,79,30,850,79,2014-10-02T02:50:00,0,28202734,188251
OK,79,30,850,79,2014-10-02T02:55:00,0,28203182,188251
OK,79,30,850,79,2014-10-02T03:00:00,0,28203617,188251
OK,56,43,850,56,2014-10-02T03:10:00,1,28204066,188251
OK,71,34,850,71,2014-10-02T03:25:00,1,28204515,188251
OK,71,34,850,71,2014-10-02T03:30:00,0,28204964,188251
OK,71,34,850,71,2014-10-02T03:35:00,0,28205393,188251
OK,71,34,850,71,2014-10-02T03:40:00,0,28205839,188251
OK,71,34,850,71,2014-10-02T03:45:00,0,28206222,188251
OK,71,34,850,71,2014-10-02T03:55:00,0,28207120,188251
OK,71,34,850,71,2014-10-02T04:00:00,0,28207541,188251
OK,71,34,850,71,2014-10-02T04:05:00,0,28207988,188251
OK,71,34,850,71,2014-10-02T04:10:00,0,28208417,188251
OK,71,34,850,71,2014-10-02T04:15:00,0,28208864,188251
OK,71,34,850,71,2014-10-02T04:20:00,0,28209302,188251
OK,71,34,850,71,2014-10-02T04:25:00,0,28209751,188251
OK,106,22,850,106,2014-10-02T04:30:00,3,28210174,188251
OK,102,23,850,102,2014-10-02T04:35:00,1,28210623,188251
OK,102,23,850,102,2014-10-02T04:40:00,0,28211049,188251
OK,102,23,850,102,2014-10-02T04:45:00,0,28211492,188251
OK,102,23,850,102,2014-10-02T04:50:00,0,28211870,188251
OK,95,25,850,95,2014-10-02T04:55:00,5,28212319,188251
OK,66,36,850,66,2014-10-02T05:00:00,1,28212748,188251
OK,90,27,850,90,2014-10-02T05:05:00,3,28213197,188251
OK,93,26,850,93,2014-10-02T05:10:00,0,28213635,188251
OK,83,29,850,83,2014-10-02T05:15:00,2,28214084,188251
OK,84,28,850,84,2014-10-02T05:20:00,0,28214499,188251
OK,162,15,850,162,2014-10-02T05:25:00,5,28214946,188251
OK,245,9,850,245,2014-10-02T05:30:00,2,28215363,188251
OK,245,9,850,245,2014-10-02T05:40:00,0,28215811,188251
OK,245,9,850,245,2014-10-02T05:45:00,0,28216590,188251
OK,245,9,850,245,2014-10-02T05:50:00,0,28217037,188251
OK,741,3,850,741,2014-10-02T05:55:00,1,28217486,188251
OK,245,9,850,245,2014-10-02T06:00:00,0,28217925,188251
OK,601,4,850,601,2014-10-02T06:05:00,1,28218374,188251
OK,245,9,850,245,2014-10-02T06:10:00,0,28218794,188251
OK,571,4,850,571,2014-10-02T06:15:00,5,28219243,188251
OK,563,4,850,563,2014-10-02T06:20:00,3,28219617,188251
OK,393,6,850,393,2014-10-02T06:25:00,3,28220065,188251
OK,393,6,850,393,2014-10-02T06:30:00,7,28220500,188251
OK,379,6,850,379,2014-10-02T06:35:00,5,28220948,188251
OK,370,6,850,370,2014-10-02T06:40:00,1,28221336,188251
OK,270,9,850,270,2014-10-02T06:45:00,3,28221615,188251
OK,172,14,850,172,2014-10-02T07:00:00,3,28222209,188251
OK,155,15,850,155,2014-10-02T07:05:00,3,28222658,188251
OK,155,15,850,155,2014-10-02T07:10:00,1,28223090,188251
OK,155,15,850,155,2014-10-02T07:15:00,0,28223525,188251
OK,155,15,850,155,2014-10-02T07:20:00,0,28223972,188251
OK,182,13,850,182,2014-10-02T07:25:00,2,28224327,188251
OK,198,12,850,198,2014-10-02T07:30:00,1,28224776,188251
OK,84,28,850,84,2014-10-02T07:35:00,3,28225225,188251
OK,58,41,850,58,2014-10-02T07:40:00,1,28225549,188251
OK,203,11,850,203,2014-10-02T07:50:00,2,28226437,188251
OK,129,18,850,129,2014-10-02T07:55:00,3,28226886,188251
OK,123,19,850,123,2014-10-02T08:00:00,2,28227302,188251
OK,109,22,850,109,2014-10-02T08:05:00,4,28227750,188251
OK,193,12,850,193,2014-10-02T08:10:00,0,28228110,188251
OK,52,46,850,52,2014-10-02T08:15:00,1,28228558,188251
OK,52,46,850,52,2014-10-02T08:20:00,0,28228969,188251
OK,98,24,850,98,2014-10-02T08:25:00,3,28229417,188251
OK,73,33,850,73,2014-10-02T08:30:00,2,28229768,188251
OK,104,23,850,104,2014-10-02T08:35:00,0,28230216,188251
OK,104,23,850,104,2014-10-02T08:40:00,0,28230587,188251
OK,104,23,850,104,2014-10-02T08:45:00,0,28231031,188251
OK,134,18,850,134,2014-10-02T08:50:00,2,28231454,188251
OK,143,17,850,143,2014-10-02T08:55:00,1,28231903,188251
OK,90,27,850,90,2014-10-02T09:00:00,3,28232246,188251
OK,95,25,850,95,2014-10-02T09:10:00,0,28232694,188251
OK,49,49,850,49,2014-10-02T09:15:00,3,28233143,188251
OK,116,20,850,116,2014-10-02T09:20:00,0,28233567,188251
OK,142,17,850,142,2014-10-02T09:25:00,1,28234016,188251
OK,142,17,850,142,2014-10-02T09:30:00,0,28234350,188251
OK,142,17,850,142,2014-10-02T09:35:00,0,28234798,188251
OK,142,17,850,142,2014-10-02T09:40:00,0,28235225,188251
OK,116,20,850,116,2014-10-02T09:45:00,2,28235674,188251
OK,88,27,850,88,2014-10-02T09:50:00,0,28236118,188251
OK,106,22,850,106,2014-10-02T09:55:00,1,28236564,188251
OK,106,22,850,106,2014-10-02T10:00:00,1,28236967,188251
OK,106,22,850,106,2014-10-02T10:05:00,0,28237415,188251
OK,70,34,850,70,2014-10-02T10:10:00,5,28237863,188251
OK,65,37,850,65,2014-10-02T10:15:00,3,28238311,188251
OK,72,33,850,72,2014-10-02T10:20:00,2,28238751,188251
OK,72,33,850,72,2014-10-02T10:25:00,2,28239200,188251
OK,72,33,850,72,2014-10-02T10:30:00,0,28239631,188251
OK,175,13,850,175,2014-10-02T10:35:00,3,28240079,188251
OK,128,19,850,128,2014-10-02T10:40:00,4,28240524,188251
OK,71,34,850,71,2014-10-02T10:45:00,2,28240972,188251
OK,71,34,850,71,2014-10-02T10:50:00,0,28241405,188251
OK,58,41,850,58,2014-10-02T10:55:00,1,28241852,188251
OK,58,41,850,58,2014-10-02T11:00:00,0,28242249,188251
OK,58,41,850,58,2014-10-02T11:05:00,0,28242697,188251
OK,121,20,850,121,2014-10-02T11:15:00,1,28243146,188251
OK,126,19,850,126,2014-10-02T11:20:00,4,28243909,188251
OK,127,19,850,127,2014-10-02T11:25:00,3,28244339,188251
OK,127,19,850,127,2014-10-02T11:30:00,0,28244787,188251
OK,134,18,850,134,2014-10-02T11:35:00,1,28245236,188251
OK,134,18,850,134,2014-10-02T11:40:00,0,28245643,188251
OK,134,18,850,134,2014-10-02T11:45:00,0,28246091,188251
OK,169,14,850,169,2014-10-02T11:50:00,2,28246528,188251
OK,157,15,850,157,2014-10-02T11:55:00,5,28246977,188251
OK,128,19,850,128,2014-10-02T12:00:00,3,28247423,188251
OK,169,14,850,169,2014-10-02T12:05:00,0,28247854,188251
OK,169,14,850,169,2014-10-02T12:10:00,0,28248302,188251
OK,149,16,850,149,2014-10-02T12:15:00,2,28248750,188251
OK,166,14,850,166,2014-10-02T12:20:00,0,28249177,188251
OK,112,21,850,112,2014-10-02T12:25:00,2,28249621,188251
OK,112,21,850,112,2014-10-02T12:30:00,0,28250040,188251
OK,100,24,850,100,2014-10-02T12:35:00,0,28250438,188251
OK,100,24,850,100,2014-10-02T12:45:00,0,28251218,188251
OK,178,13,850,178,2014-10-02T13:20:00,2,28251763,188251
OK,178,13,850,178,2014-10-02T13:30:00,0,28252347,188251
OK,178,13,850,178,2014-10-02T13:35:00,0,28252789,188251
OK,178,13,850,178,2014-10-02T13:40:00,0,28253206,188251
OK,292,8,850,292,2014-10-02T13:45:00,3,28253655,188251
OK,332,7,850,332,2014-10-02T13:50:00,1,28254061,188251
OK,346,7,850,346,2014-10-02T13:55:00,3,28254381,188251
OK,298,8,850,298,2014-10-02T14:10:00,3,28254958,188251
OK,442,5,850,442,2014-10-02T14:15:00,1,28255407,188251
OK,423,5,850,423,2014-10-02T14:20:00,2,28255835,188251
OK,405,6,850,405,2014-10-02T14:25:00,1,28256284,188251
OK,468,5,850,468,2014-10-02T14:30:00,3,28256712,188251
OK,468,5,850,468,2014-10-02T14:35:00,3,28257161,188251
OK,463,5,850,463,2014-10-02T14:40:00,1,28257602,188251
OK,424,5,850,424,2014-10-02T14:45:00,2,28258050,188251
OK,543,4,850,543,2014-10-02T14:50:00,0,28258483,188251
OK,196,12,850,196,2014-10-02T14:55:00,1,28258929,188251
OK,234,10,850,234,2014-10-02T15:00:00,2,28259378,188251
OK,277,8,850,277,2014-10-02T15:05:00,2,28259825,188251
OK,284,8,850,284,2014-10-02T15:10:00,2,28260258,188251
OK,416,5,850,416,2014-10-02T15:15:00,1,28260707,188251
OK,416,5,850,416,2014-10-02T15:20:00,1,28261147,188251
OK,263,9,850,263,2014-10-02T15:25:00,1,28261529,188251
OK,263,9,850,263,2014-10-02T15:30:00,1,28261959,188251
OK,125,19,850,125,2014-10-02T15:35:00,3,28262406,188251
OK,125,19,850,125,2014-10-02T15:40:00,1,28262852,188251
OK,102,23,850,102,2014-10-02T15:45:00,4,28263290,188251
OK,107,22,850,107,2014-10-02T15:50:00,1,28263731,188251